Location: Gilevgi
(36.8751°N, 30.0581°E)
Time: 21:16:03
(UTC+00:00)

Milstar 3 Cent rocket - Pass Details

Date: 11 December 2025
Orbit: 709 x 5142 km, 28.3° (Epoch: 10 January)

Event Time Altitude Azimuth Distance (km) Brightness Sun altitude
Rises 15:13:53 0° 258° (WSW) 3,912 7.7 -6.3°
Reaches altitude 10° 15:16:03 10° 253° (WSW) 3,231 7.0 -6.7°
Maximum altitude 15:24:04 56° 177° (S) 2,238 4.5 -8.1°
Drops below altitude 10° 15:41:27 10° 106° (ESE) 6,594 6.3 -11.4°
Sets 15:48:17 0° 103° (ESE) 8,304 6.8 -12.7°
